TimeEST,TemperatureF,Dew PointF,Humidity,Sea Level PressureIn,VisibilityMPH,Wind Direction,Wind SpeedMPH,Gust SpeedMPH,PrecipitationIn,Events,Conditions,WindDirDegrees,DateUTC
12:53 AM,72.0,61.0,68,29.95,10.0,Calm,Calm,-,N/A,,Mostly Cloudy,0,2012-11-06 05:53:00
1:53 AM,72.0,64.0,76,29.94,10.0,Calm,Calm,-,N/A,,Overcast,0,2012-11-06 06:53:00
2:53 AM,70.0,64.9,84,29.92,10.0,Calm,Calm,-,N/A,,Mostly Cloudy,0,2012-11-06 07:53:00
3:53 AM,70.0,64.9,84,29.91,10.0,Calm,Calm,-,N/A,,Mostly Cloudy,0,2012-11-06 08:53:00
4:53 AM,68.0,64.9,90,29.91,10.0,Calm,Calm,-,N/A,,Mostly Cloudy,0,2012-11-06 09:53:00
5:53 AM,69.1,66.0,90,29.93,10.0,Calm,Calm,-,N/A,,Mostly Cloudy,0,2012-11-06 10:53:00
6:53 AM,68.0,66.2,94,29.94,10.0,Calm,Calm,-,N/A,,Mostly Cloudy,0,2012-11-06 11:53:00
7:53 AM,71.1,68.0,90,29.96,10.0,Calm,Calm,-,N/A,,Mostly Cloudy,0,2012-11-06 12:53:00
8:53 AM,73.0,66.0,79,29.96,10.0,Calm,Calm,-,N/A,,Mostly Cloudy,0,2012-11-06 13:53:00
9:53 AM,75.0,63.0,66,29.96,10.0,SSW,4.6,-,N/A,,Mostly Cloudy,210,2012-11-06 14:53:00
10:53 AM,78.1,61.0,56,29.95,10.0,WSW,9.2,-,N/A,,Mostly Cloudy,250,2012-11-06 15:53:00
11:53 AM,81.0,63.0,54,29.92,10.0,SW,11.5,18.4,N/A,,Scattered Clouds,220,2012-11-06 16:53:00
12:53 PM,82.0,60.1,47,29.88,10.0,SW,11.5,20.7,N/A,,Scattered Clouds,230,2012-11-06 17:53:00
1:53 PM,82.0,57.0,42,29.86,10.0,SW,11.5,19.6,N/A,,Scattered Clouds,230,2012-11-06 18:53:00
2:53 PM,82.0,59.0,45,29.85,10.0,WSW,11.5,21.9,N/A,,Scattered Clouds,250,2012-11-06 19:53:00
3:53 PM,82.0,60.1,47,29.86,10.0,WSW,13.8,20.7,N/A,,Scattered Clouds,250,2012-11-06 20:53:00
4:53 PM,80.1,54.0,40,29.86,10.0,WSW,11.5,-,N/A,,Mostly Cloudy,250,2012-11-06 21:53:00
5:53 PM,78.1,61.0,56,29.87,10.0,West,8.1,-,N/A,,Mostly Cloudy,260,2012-11-06 22:53:00
6:53 PM,75.0,64.0,69,29.88,10.0,Calm,Calm,-,N/A,,Overcast,0,2012-11-06 23:53:00
7:53 PM,73.9,64.9,73,29.89,10.0,West,5.8,-,N/A,,Scattered Clouds,260,2012-11-07 00:53:00
8:53 PM,73.9,64.9,73,29.90,10.0,SW,4.6,-,N/A,,Partly Cloudy,230,2012-11-07 01:53:00
9:53 PM,73.0,64.9,76,29.89,10.0,SW,4.6,-,N/A,,Partly Cloudy,230,2012-11-07 02:53:00
10:53 PM,72.0,64.9,78,29.89,10.0,WSW,5.8,-,N/A,,Partly Cloudy,250,2012-11-07 03:53:00
11:53 PM,72.0,66.0,81,29.88,10.0,WSW,4.6,-,N/A,,Mostly Cloudy,250,2012-11-07 04:53:00